| time (UTC) | temp F | wind direction | speed knots | gust knots | rain 1hr in | rain 24hr in | rain mn in | humidity % | barometer mb |
| 20260505173033 | 57 | 0 | 0.0 | 0.9 | 0.00 | 0.01 | 0.00 | 81 | 1024.3 |
| 20260505172511 | 57 | 0 | 0.0 | 0.9 | 0.00 | 0.03 | 0.00 | 81 | 1024.4 |
| 20260505172012 | 57 | 0 | 0.0 | 0.9 | 0.00 | 0.03 | 0.00 | 81 | 1024.4 |
| 20260505171530 | 57 | 0 | 0.0 | 0.9 | 0.00 | 0.03 | 0.00 | 81 | 1024.5 |
| 20260505171011 | 57 | 0 | 0.0 | 0.9 | 0.00 | 0.03 | 0.00 | 81 | 1024.5 |
| 20260505170510 | 57 | 0 | 0.0 | 0.9 | 0.00 | 0.03 | 0.00 | 81 | 1024.6 |
| 20260505170028 | 57 | 0 | 0.0 | 0.9 | 0.00 | 0.03 | 0.00 | 81 | 1024.5 |
| 20260505165513 | 57 | 0 | 0.0 | 0.9 | 0.00 | 0.03 | 0.00 | 81 | 1024.7 |
| 20260505165011 | 57 | 0 | 0.0 | 1.7 | 0.00 | 0.03 | 0.00 | 81 | 1024.6 |
| 20260505164529 | 57 | 0 | 0.0 | 1.7 | 0.00 | 0.03 | 0.00 | 81 | 1024.7 |
| 20260505164012 | 57 | 246 | 0.0 | 0.9 | 0.00 | 0.03 | 0.00 | 81 | 1024.7 |
| 20260505163510 | 57 | 0 | 0.0 | 0.9 | 0.00 | 0.03 | 0.00 | 81 | 1024.7 |
| 20260505163029 | 57 | 0 | 0.0 | 0.9 | 0.00 | 0.03 | 0.00 | 81 | 1024.8 |
| 20260505162512 | 57 | 0 | 0.0 | 0.9 | 0.00 | 0.03 | 0.00 | 81 | 1024.7 |
| 20260505162010 | 57 | 0 | 0.0 | 0.0 | 0.00 | 0.03 | 0.00 | 81 | 1024.9 |
| 20260505161528 | 57 | 0 | 0.0 | 0.9 | 0.00 | 0.03 | 0.00 | 81 | 1024.9 |
| 20260505161009 | 57 | 0 | 0.0 | 0.9 | 0.00 | 0.03 | 0.00 | 81 | 1024.9 |
| 20260505160511 | 57 | 0 | 0.0 | 0.9 | 0.00 | 0.03 | 0.00 | 81 | 1025.0 |
| 20260505153029 | 58 | 0 | 0.0 | 1.7 | 0.00 | 0.03 | 0.00 | 80 | 1025.1 |
| 20260505152511 | 58 | 246 | 0.0 | 2.6 | 0.00 | 0.03 | 0.00 | 80 | 1025.1 |
| 20260505152011 | 58 | 0 | 0.0 | 2.6 | 0.00 | 0.03 | 0.00 | 80 | 1025.0 |
| 20260505151532 | 58 | 0 | 0.0 | 0.9 | 0.00 | 0.03 | 0.00 | 80 | 1025.1 |
| 20260505151011 | 58 | 0 | 0.0 | 0.0 | 0.00 | 0.03 | 0.00 | 80 | 1025.1 |
| 20260505150513 | 58 | 0 | 0.0 | 0.0 | 0.00 | 0.03 | 0.00 | 79 | 1025.2 |
| 20260505140510 | 57 | 0 | 0.0 | 0.0 | 0.00 | 0.03 | 0.03 | 77 | 1025.3 |
| 20260505125011 | 58 | 0 | 0.0 | 0.0 | 0.00 | 0.03 | 0.03 | 76 | 1026.0 |
| 20260505124532 | 58 | 0 | 0.0 | 0.0 | 0.00 | 0.03 | 0.03 | 76 | 1025.9 |
| 20260505124011 | 58 | 0 | 0.0 | 0.0 | 0.00 | 0.03 | 0.03 | 76 | 1025.9 |
| 20260505123510 | 58 | 0 | 0.0 | 0.0 | 0.00 | 0.03 | 0.03 | 76 | 1025.9 |
| 20260505123029 | 58 | 0 | 0.0 | 0.0 | 0.00 | 0.03 | 0.03 | 76 | 1025.9 |
| 20260505122511 | 58 | 0 | 0.0 | 0.0 | 0.00 | 0.03 | 0.03 | 76 | 1025.9 |
| 20260505122011 | 58 | 0 | 0.0 | 0.0 | 0.00 | 0.03 | 0.03 | 76 | 1025.9 |
| 20260505121530 | 58 | 0 | 0.0 | 0.0 | 0.00 | 0.03 | 0.03 | 76 | 1025.9 |
| 20260505121009 | 58 | 0 | 0.0 | 0.0 | 0.00 | 0.03 | 0.03 | 76 | 1025.9 |
| 20260505120508 | 58 | 0 | 0.0 | 0.0 | 0.00 | 0.03 | 0.03 | 76 | 1025.8 |
| 20260505120032 | 58 | 0 | 0.0 | 0.0 | 0.00 | 0.03 | 0.03 | 76 | 1026.0 |
| 20260505115513 | 57 | 0 | 0.0 | 0.9 | 0.00 | 0.03 | 0.03 | 76 | 1025.8 |
| 20260505115012 | 57 | 0 | 0.0 | 1.7 | 0.00 | 0.03 | 0.03 | 76 | 1025.7 |
| 20260505114530 | 57 | 0 | 0.0 | 1.7 | 0.00 | 0.03 | 0.03 | 76 | 1025.8 |
| 20260505114010 | 57 | 0 | 0.0 | 1.7 | 0.00 | 0.03 | 0.03 | 76 | 1025.7 |
| 20260505113513 | 57 | 0 | 0.0 | 0.9 | 0.00 | 0.03 | 0.03 | 76 | 1025.8 |
| 20260505113027 | 57 | 0 | 0.0 | 0.9 | 0.00 | 0.03 | 0.03 | 76 | 1025.8 |
| 20260505112514 | 57 | 0 | 0.0 | 1.7 | 0.00 | 0.07 | 0.03 | 75 | 1025.8 |
| 20260505112011 | 57 | 0 | 0.0 | 1.7 | 0.00 | 0.07 | 0.03 | 75 | 1025.7 |
| 20260505111528 | 57 | 0 | 0.0 | 1.7 | 0.00 | 0.07 | 0.03 | 75 | 1025.9 |
| 20260505111010 | 57 | 0 | 0.0 | 1.7 | 0.00 | 0.07 | 0.03 | 75 | 1025.9 |
| 20260505110512 | 57 | 0 | 0.0 | 0.9 | 0.00 | 0.07 | 0.03 | 75 | 1026.0 |
| 20260505102009 | 57 | 0 | 0.0 | 0.0 | 0.00 | 0.07 | 0.03 | 73 | 1025.7 |
| 20260505101534 | 57 | 0 | 0.0 | 0.0 | 0.00 | 0.07 | 0.03 | 73 | 1025.8 |
| 20260505101008 | 57 | 0 | 0.0 | 0.0 | 0.00 | 0.07 | 0.03 | 73 | 1025.8 |
| 20260505100511 | 57 | 0 | 0.0 | 0.0 | 0.00 | 0.07 | 0.03 | 73 | 1025.8 |
| 20260505100028 | 56 | 0 | 0.0 | 2.6 | 0.00 | 0.07 | 0.03 | 73 | 1025.8 |
| 20260505095512 | 56 | 0 | 0.0 | 2.6 | 0.00 | 0.07 | 0.03 | 72 | 1025.8 |
| 20260505095014 | 56 | 0 | 0.0 | 0.0 | 0.00 | 0.07 | 0.03 | 72 | 1025.8 |
| 20260505094526 | 56 | 0 | 0.0 | 0.0 | 0.00 | 0.07 | 0.03 | 71 | 1025.8 |
| 20260505094008 | 56 | 0 | 0.0 | 0.0 | 0.00 | 0.07 | 0.03 | 71 | 1025.9 |
| 20260505093509 | 56 | 0 | 0.0 | 0.0 | 0.00 | 0.07 | 0.03 | 71 | 1025.8 |
| 20260505093035 | 56 | 0 | 0.0 | 0.0 | 0.00 | 0.07 | 0.03 | 70 | 1025.8 |
| 20260505092509 | 56 | 0 | 0.0 | 0.0 | 0.00 | 0.07 | 0.03 | 70 | 1025.7 |
| 20260505092012 | 56 | 0 | 0.0 | 0.0 | 0.00 | 0.07 | 0.03 | 70 | 1025.7 |
| 20260505091528 | 56 | 0 | 0.0 | 0.0 | 0.00 | 0.07 | 0.03 | 69 | 1025.6 |
| 20260505091014 | 56 | 0 | 0.0 | 0.0 | 0.00 | 0.07 | 0.03 | 69 | 1025.6 |
| 20260505090508 | 56 | 0 | 0.0 | 0.0 | 0.00 | 0.07 | 0.03 | 69 | 1025.6 |
| 20260505090030 | 57 | 0 | 0.0 | 0.0 | 0.00 | 0.07 | 0.03 | 69 | 1025.5 |
| 20260505085512 | 57 | 0 | 0.0 | 0.0 | 0.00 | 0.07 | 0.03 | 68 | 1025.4 |
| 20260505085012 | 57 | 0 | 0.0 | 0.0 | 0.00 | 0.07 | 0.03 | 68 | 1025.3 |
| 20260505084529 | 57 | 0 | 0.0 | 0.0 | 0.00 | 0.07 | 0.03 | 67 | 1025.3 |
| 20260505084008 | 57 | 0 | 0.0 | 0.0 | 0.00 | 0.07 | 0.03 | 67 | 1025.2 |
| 20260505083513 | 58 | 0 | 0.0 | 0.0 | 0.00 | 0.07 | 0.03 | 67 | 1025.2 |
| 20260505083033 | 58 | 0 | 0.0 | 0.0 | 0.00 | 0.07 | 0.03 | 66 | 1025.1 |
| 20260505082510 | 58 | 0 | 0.0 | 0.0 | 0.00 | 0.07 | 0.03 | 65 | 1025.1 |
| 20260505082009 | 58 | 0 | 0.0 | 0.0 | 0.00 | 0.07 | 0.03 | 65 | 1025.1 |
| 20260505081530 | 59 | 0 | 0.0 | 0.0 | 0.00 | 0.07 | 0.03 | 65 | 1025.1 |
| 20260505081012 | 59 | 0 | 0.0 | 0.0 | 0.00 | 0.07 | 0.03 | 64 | 1025.0 |
| 20260505080511 | 59 | 0 | 0.0 | 0.0 | 0.00 | 0.07 | 0.03 | 64 | 1025.0 |
| 20260505080028 | 60 | 0 | 0.0 | 0.0 | 0.00 | 0.07 | 0.03 | 64 | 1024.9 |
| 20260505075511 | 60 | 0 | 0.0 | 0.0 | 0.00 | 0.07 | 0.03 | 64 | 1024.9 |
| 20260505075011 | 60 | 0 | 0.0 | 0.0 | 0.00 | 0.07 | 0.03 | 64 | 1024.9 |
| 20260505074530 | 61 | 0 | 0.0 | 0.9 | 0.00 | 0.07 | 0.03 | 64 | 1024.9 |
| 20260505074012 | 61 | 0 | 0.0 | 1.7 | 0.00 | 0.07 | 0.03 | 64 | 1024.9 |
| 20260505073513 | 61 | 0 | 0.0 | 1.7 | 0.00 | 0.07 | 0.03 | 64 | 1024.9 |
| 20260505073031 | 61 | 0 | 0.0 | 2.6 | 0.00 | 0.07 | 0.03 | 64 | 1024.9 |
| 20260505072514 | 61 | 0 | 0.0 | 3.5 | 0.00 | 0.07 | 0.03 | 64 | 1024.9 |
| 20260505072011 | 61 | 246 | 0.0 | 4.3 | 0.00 | 0.07 | 0.03 | 63 | 1024.8 |
| 20260505071526 | 62 | 0 | 0.9 | 4.3 | 0.00 | 0.07 | 0.03 | 63 | 1024.8 |
| 20260505071008 | 62 | 245 | 0.9 | 4.3 | 0.00 | 0.07 | 0.03 | 63 | 1024.8 |
| 20260505070514 | 62 | 0 | 0.0 | 3.5 | 0.00 | 0.07 | 0.03 | 63 | 1024.8 |
| 20260505070037 | 62 | 0 | 0.9 | 4.3 | 0.00 | 0.07 | 0.03 | 64 | 1024.8 |
| 20260505065509 | 62 | 0 | 0.0 | 4.3 | 0.00 | 0.07 | 0.03 | 64 | 1024.8 |
| 20260505065008 | 62 | 245 | 0.9 | 6.1 | 0.00 | 0.07 | 0.03 | 64 | 1024.7 |
| 20260505064530 | 62 | 247 | 0.0 | 6.1 | 0.00 | 0.07 | 0.03 | 64 | 1024.8 |
| 20260505064008 | 62 | 244 | 0.9 | 6.1 | 0.00 | 0.07 | 0.03 | 64 | 1024.8 |
| 20260505063508 | 63 | 241 | 0.9 | 4.3 | 0.00 | 0.07 | 0.03 | 64 | 1024.8 |
| 20260505063030 | 63 | 242 | 0.9 | 4.3 | 0.00 | 0.07 | 0.03 | 63 | 1024.7 |
| 20260505062519 | 63 | 246 | 0.9 | 6.1 | 0.00 | 0.07 | 0.03 | 63 | 1024.7 |
| 20260505062013 | 64 | 0 | 0.9 | 6.1 | 0.00 | 0.07 | 0.03 | 62 | 1024.8 |
| 20260505061538 | 64 | 211 | 0.9 | 4.3 | 0.00 | 0.07 | 0.03 | 62 | 1024.7 |
| 20260505061008 | 64 | 202 | 0.9 | 4.3 | 0.00 | 0.07 | 0.03 | 62 | 1024.6 |
| 20260505060512 | 64 | 186 | 0.9 | 4.3 | 0.00 | 0.07 | 0.03 | 63 | 1024.6 |
| 20260505060027 | 65 | 149 | 0.9 | 7.0 | 0.00 | 0.07 | 0.03 | 63 | 1024.5 |
| 20260505055517 | 65 | 245 | 0.9 | 7.0 | 0.00 | 0.07 | 0.03 | 62 | 1024.4 |
| 20260505055016 | 64 | 251 | 1.7 | 7.0 | 0.00 | 0.07 | 0.03 | 61 | 1024.5 |
| 20260505054527 | 64 | 267 | 0.9 | 7.0 | 0.00 | 0.07 | 0.03 | 60 | 1024.5 |
| 20260505054014 | 64 | 267 | 1.7 | 7.0 | 0.00 | 0.07 | 0.03 | 60 | 1024.3 |
| 20260505053511 | 64 | 263 | 0.9 | 5.2 | 0.00 | 0.07 | 0.03 | 59 | 1024.3 |
| 20260505053039 | 64 | 263 | 1.7 | 6.1 | 0.00 | 0.07 | 0.03 | 59 | 1024.3 |
| 20260505052510 | 64 | 265 | 1.7 | 6.1 | 0.00 | 0.07 | 0.03 | 59 | 1024.3 |
| 20260505052012 | 64 | 260 | 1.7 | 5.2 | 0.00 | 0.07 | 0.03 | 59 | 1024.3 |
| 20260505051552 | 64 | 269 | 1.7 | 5.2 | 0.00 | 0.07 | 0.03 | 60 | 1024.3 |
| 20260505051011 | 64 | 263 | 0.9 | 2.6 | 0.00 | 0.07 | 0.03 | 61 | 1024.1 |
| 20260505050516 | 64 | 263 | 0.0 | 2.6 | 0.00 | 0.07 | 0.03 | 62 | 1024.1 |
| 20260505041532 | 64 | 263 | 0.9 | 5.2 | 0.00 | 0.07 | 0.03 | 64 | 1024.3 |
| 20260505041009 | 64 | 263 | 0.9 | 5.2 | 0.00 | 0.07 | 0.03 | 64 | 1024.4 |
| 20260505040509 | 63 | 268 | 0.9 | 5.2 | 0.00 | 0.07 | 0.03 | 64 | 1024.4 |
| 20260505040030 | 63 | 272 | 1.7 | 5.2 | 0.00 | 0.07 | 0.03 | 64 | 1024.4 |
| 20260505035508 | 63 | 282 | 1.7 | 3.5 | 0.00 | 0.07 | 0.03 | 65 | 1024.5 |
| 20260505035007 | 63 | 286 | 0.9 | 5.2 | 0.00 | 0.07 | 0.03 | 65 | 1024.6 |
| 20260505034530 | 63 | 287 | 1.7 | 5.2 | 0.00 | 0.07 | 0.03 | 65 | 1024.7 |
| 20260505034010 | 63 | 290 | 1.7 | 4.3 | 0.00 | 0.07 | 0.03 | 65 | 1024.8 |
| 20260505033511 | 63 | 293 | 1.7 | 4.3 | 0.00 | 0.07 | 0.03 | 65 | 1024.8 |
| 20260505033029 | 63 | 290 | 1.7 | 3.5 | 0.00 | 0.07 | 0.03 | 66 | 1024.8 |
| 20260505032510 | 63 | 290 | 1.7 | 6.1 | 0.00 | 0.07 | 0.03 | 66 | 1024.8 |
| 20260505032011 | 63 | 289 | 0.9 | 6.1 | 0.00 | 0.07 | 0.03 | 65 | 1024.9 |
| 20260505031526 | 63 | 290 | 1.7 | 7.0 | 0.00 | 0.07 | 0.03 | 66 | 1024.9 |
| 20260505031011 | 63 | 288 | 1.7 | 7.0 | 0.00 | 0.07 | 0.03 | 66 | 1025.0 |
| 20260505030512 | 63 | 360 | 1.7 | 4.3 | 0.00 | 0.07 | 0.03 | 66 | 1025.1 |
| 20260505030031 | 63 | 360 | 2.6 | 5.2 | 0.00 | 0.07 | 0.03 | 67 | 1025.0 |
| 20260505025514 | 63 | 360 | 1.7 | 5.2 | 0.00 | 0.07 | 0.03 | 68 | 1025.3 |
| 20260505025008 | 63 | 288 | 1.7 | 7.0 | 0.00 | 0.07 | 0.03 | 68 | 1025.2 |
| 20260505024528 | 62 | 290 | 1.7 | 7.0 | 0.00 | 0.07 | 0.03 | 68 | 1025.4 |
| 20260505024010 | 62 | 290 | 2.6 | 6.1 | 0.00 | 0.07 | 0.03 | 68 | 1025.3 |
| 20260505023508 | 62 | 0 | 1.7 | 6.1 | 0.00 | 0.07 | 0.03 | 68 | 1025.3 |
| 20260505023028 | 62 | 295 | 1.7 | 7.0 | 0.00 | 0.07 | 0.03 | 70 | 1025.3 |
| 20260505022509 | 62 | 0 | 1.7 | 7.0 | 0.00 | 0.07 | 0.03 | 70 | 1025.4 |
| 20260505022010 | 62 | 0 | 0.9 | 6.1 | 0.00 | 0.07 | 0.03 | 72 | 1025.5 |
| 20260505021529 | 62 | 280 | 2.6 | 6.1 | 0.00 | 0.07 | 0.03 | 73 | 1025.5 |
| 20260505021009 | 61 | 271 | 0.9 | 4.3 | 0.00 | 0.07 | 0.03 | 75 | 1025.5 |
| 20260505020508 | 61 | 360 | 0.0 | 4.3 | 0.00 | 0.07 | 0.03 | 76 | 1025.5 |
| 20260505020027 | 61 | 360 | 0.0 | 3.5 | 0.00 | 0.07 | 0.03 | 77 | 1025.5 |
| 20260505015513 | 61 | 0 | 0.9 | 3.5 | 0.00 | 0.07 | 0.03 | 78 | 1025.6 |
| 20260505015012 | 60 | 0 | 0.9 | 4.3 | 0.00 | 0.07 | 0.03 | 80 | 1025.6 |
| 20260505014525 | 60 | 0 | 0.0 | 4.3 | 0.00 | 0.07 | 0.03 | 81 | 1025.6 |
| 20260505014017 | 60 | 360 | 0.0 | 2.6 | 0.00 | 0.07 | 0.03 | 82 | 1025.6 |
| 20260505013509 | 59 | 360 | 0.9 | 2.6 | 0.00 | 0.07 | 0.03 | 84 | 1025.6 |
| 20260505013029 | 59 | 360 | 0.0 | 2.6 | 0.00 | 0.07 | 0.03 | 84 | 1025.6 |
| 20260505012508 | 59 | 286 | 0.9 | 3.5 | 0.00 | 0.07 | 0.03 | 85 | 1025.7 |
| 20260505012012 | 59 | 0 | 0.0 | 3.5 | 0.00 | 0.07 | 0.03 | 86 | 1025.6 |
| 20260505011527 | 58 | 360 | 0.9 | 4.3 | 0.00 | 0.07 | 0.03 | 87 | 1025.5 |
| 20260505011009 | 58 | 0 | 0.0 | 5.2 | 0.00 | 0.07 | 0.03 | 88 | 1025.5 |
| 20260505010512 | 58 | 360 | 1.7 | 5.2 | 0.00 | 0.07 | 0.03 | 88 | 1025.3 |
| 20260505010030 | 58 | 0 | 0.0 | 4.3 | 0.00 | 0.07 | 0.03 | 88 | 1025.3 |
| 20260505005509 | 59 | 279 | 0.0 | 5.2 | 0.00 | 0.07 | 0.03 | 89 | 1025.3 |
| 20260505005008 | 59 | 279 | 0.0 | 5.2 | 0.00 | 0.07 | 0.03 | 89 | 1025.2 |
| 20260505004530 | 59 | 274 | 0.0 | 2.6 | 0.00 | 0.07 | 0.03 | 90 | 1025.2 |
| 20260505004008 | 59 | 0 | 0.0 | 0.0 | 0.00 | 0.07 | 0.03 | 90 | 1025.2 |
| 20260505003511 | 58 | 0 | 0.0 | 0.0 | 0.00 | 0.07 | 0.03 | 90 | 1025.1 |
| 20260505003029 | 58 | 0 | 0.0 | 0.0 | 0.00 | 0.07 | 0.03 | 90 | 1025.0 |
| 20260505002511 | 58 | 0 | 0.0 | 0.0 | 0.00 | 0.08 | 0.03 | 90 | 1025.1 |
| 20260505002011 | 58 | 0 | 0.0 | 0.0 | 0.00 | 0.08 | 0.03 | 90 | 1025.0 |
| 20260505001529 | 58 | 0 | 0.0 | 0.0 | 0.00 | 0.08 | 0.03 | 90 | 1025.0 |
| 20260505001008 | 58 | 0 | 0.0 | 0.0 | 0.00 | 0.08 | 0.03 | 90 | 1024.9 |
| 20260505000507 | 58 | 0 | 0.0 | 0.0 | 0.00 | 0.08 | 0.03 | 90 | 1024.9 |
| 20260505000026 | 58 | 0 | 0.0 | 0.0 | 0.00 | 0.08 | 0.03 | 90 | 1024.9 |
| 20260504235508 | 58 | 0 | 0.0 | 0.0 | 0.00 | 0.08 | 0.03 | 90 | 1024.9 |
| 20260504235009 | 58 | 0 | 0.0 | 0.0 | 0.00 | 0.08 | 0.03 | 90 | 1024.8 |
| 20260504234534 | 58 | 0 | 0.0 | 0.0 | 0.00 | 0.08 | 0.03 | 90 | 1025.0 |
| 20260504234008 | 58 | 0 | 0.0 | 0.0 | 0.00 | 0.08 | 0.03 | 90 | 1024.8 |
| 20260504233508 | 57 | 0 | 0.0 | 0.0 | 0.00 | 0.08 | 0.03 | 90 | 1024.9 |
| 20260504233028 | 57 | 0 | 0.0 | 0.0 | 0.00 | 0.08 | 0.03 | 90 | 1024.9 |
| 20260504232509 | 57 | 0 | 0.0 | 0.0 | 0.00 | 0.08 | 0.03 | 89 | 1025.0 |
| 20260504232008 | 57 | 0 | 0.0 | 0.0 | 0.00 | 0.08 | 0.03 | 90 | 1024.8 |
| 20260504231527 | 57 | 0 | 0.0 | 0.0 | 0.00 | 0.08 | 0.03 | 90 | 1024.8 |
| 20260504231008 | 57 | 0 | 0.0 | 0.0 | 0.00 | 0.08 | 0.03 | 89 | 1024.7 |
| 20260504230507 | 57 | 0 | 0.0 | 0.0 | 0.00 | 0.08 | 0.03 | 89 | 1024.7 |
| 20260504230029 | 56 | 0 | 0.0 | 0.0 | 0.00 | 0.08 | 0.03 | 89 | 1024.6 |
| 20260504225516 | 56 | 0 | 0.0 | 0.0 | 0.00 | 0.08 | 0.03 | 89 | 1024.5 |
| 20260504225008 | 56 | 0 | 0.0 | 0.0 | 0.00 | 0.08 | 0.03 | 89 | 1024.5 |
| 20260504224528 | 56 | 0 | 0.0 | 0.0 | 0.00 | 0.08 | 0.03 | 89 | 1024.5 |
| 20260504224008 | 56 | 0 | 0.0 | 0.0 | 0.00 | 0.08 | 0.03 | 89 | 1024.4 |
| 20260504223508 | 56 | 0 | 0.0 | 0.0 | 0.00 | 0.08 | 0.03 | 89 | 1024.3 |
| 20260504223030 | 56 | 0 | 0.0 | 0.0 | 0.00 | 0.08 | 0.03 | 89 | 1024.4 |
| 20260504222510 | 55 | 0 | 0.0 | 0.0 | 0.00 | 0.18 | 0.03 | 89 | 1024.1 |
| 20260504222010 | 55 | 0 | 0.0 | 0.0 | 0.00 | 0.18 | 0.03 | 89 | 1024.2 |
| 20260504221528 | 55 | 0 | 0.0 | 0.0 | 0.00 | 0.18 | 0.03 | 89 | 1024.1 |
| 20260504221011 | 55 | 0 | 0.0 | 0.0 | 0.00 | 0.18 | 0.03 | 89 | 1024.0 |
| 20260504220508 | 54 | 0 | 0.0 | 0.0 | 0.00 | 0.18 | 0.03 | 89 | 1023.9 |
| 20260504220030 | 54 | 0 | 0.0 | 0.0 | 0.00 | 0.18 | 0.03 | 89 | 1024.0 |
| 20260504215510 | 54 | 0 | 0.0 | 0.0 | 0.00 | 0.18 | 0.03 | 88 | 1023.8 |
| 20260504215008 | 54 | 0 | 0.0 | 0.0 | 0.00 | 0.18 | 0.03 | 88 | 1023.8 |
| 20260504214528 | 54 | 0 | 0.0 | 0.0 | 0.00 | 0.18 | 0.03 | 88 | 1023.8 |
| 20260504214007 | 54 | 0 | 0.0 | 0.0 | 0.00 | 0.18 | 0.03 | 88 | 1023.8 |
| 20260504213511 | 54 | 0 | 0.0 | 0.0 | 0.00 | 0.18 | 0.03 | 88 | 1023.8 |
| 20260504213026 | 54 | 0 | 0.0 | 0.0 | 0.00 | 0.18 | 0.03 | 88 | 1023.8 |
| 20260504212508 | 53 | 0 | 0.0 | 0.0 | 0.00 | 0.22 | 0.03 | 88 | 1023.7 |
| 20260504212009 | 53 | 0 | 0.0 | 0.0 | 0.00 | 0.22 | 0.03 | 88 | 1023.6 |
| 20260504211527 | 53 | 0 | 0.0 | 0.0 | 0.00 | 0.21 | 0.03 | 88 | 1023.6 |
| 20260504211011 | 53 | 0 | 0.0 | 0.0 | 0.00 | 0.21 | 0.03 | 88 | 1023.5 |
| 20260504210509 | 53 | 0 | 0.0 | 0.0 | 0.00 | 0.21 | 0.03 | 88 | 1023.4 |
| 20260504210032 | 53 | 0 | 0.0 | 0.0 | 0.00 | 0.21 | 0.03 | 88 | 1023.3 |
| 20260504205512 | 53 | 0 | 0.0 | 0.0 | 0.00 | 0.21 | 0.03 | 88 | 1023.2 |
| 20260504205011 | 53 | 0 | 0.0 | 0.0 | 0.00 | 0.21 | 0.03 | 88 | 1023.1 |
| 20260504204527 | 53 | 0 | 0.0 | 0.0 | 0.00 | 0.21 | 0.03 | 88 | 1023.2 |
| 20260504204007 | 53 | 0 | 0.0 | 0.0 | 0.00 | 0.21 | 0.03 | 87 | 1023.1 |
| 20260504203513 | 53 | 0 | 0.0 | 0.0 | 0.00 | 0.21 | 0.03 | 87 | 1023.1 |
| 20260504203039 | 53 | 0 | 0.0 | 0.0 | 0.00 | 0.21 | 0.03 | 87 | 1023.0 |
| 20260504202511 | 53 | 0 | 0.0 | 0.0 | 0.00 | 0.21 | 0.03 | 87 | 1023.0 |
| 20260504202008 | 53 | 0 | 0.0 | 0.0 | 0.00 | 0.21 | 0.03 | 87 | 1023.0 |
| 20260504201531 | 53 | 0 | 0.0 | 0.0 | 0.00 | 0.21 | 0.03 | 87 | 1022.9 |
| 20260504201018 | 53 | 0 | 0.0 | 0.0 | 0.00 | 0.21 | 0.03 | 87 | 1023.0 |
| 20260504200510 | 53 | 0 | 0.0 | 0.0 | 0.00 | 0.21 | 0.03 | 87 | 1022.9 |
| 20260504200026 | 53 | 0 | 0.0 | 0.0 | 0.00 | 0.21 | 0.03 | 87 | 1022.9 |
| 20260504195509 | 53 | 0 | 0.0 | 0.0 | 0.00 | 0.21 | 0.03 | 87 | 1022.9 |
| 20260504195013 | 53 | 0 | 0.0 | 0.0 | 0.00 | 0.21 | 0.03 | 87 | 1022.8 |
| 20260504194533 | 53 | 0 | 0.0 | 0.0 | 0.00 | 0.21 | 0.03 | 87 | 1022.8 |
| 20260504194010 | 53 | 0 | 0.0 | 0.0 | 0.00 | 0.21 | 0.03 | 87 | 1022.7 |
| 20260504193514 | 53 | 0 | 0.0 | 0.0 | 0.00 | 0.21 | 0.03 | 87 | 1022.7 |
| 20260504193030 | 53 | 0 | 0.0 | 0.0 | 0.00 | 0.21 | 0.03 | 87 | 1022.7 |
| 20260504192509 | 53 | 0 | 0.0 | 0.0 | 0.00 | 0.29 | 0.03 | 87 | 1022.7 |
| 20260504192010 | 53 | 0 | 0.0 | 0.0 | 0.00 | 0.28 | 0.02 | 87 | 1022.7 |
| 20260504191529 | 53 | 0 | 0.0 | 0.0 | 0.00 | 0.28 | 0.02 | 87 | 1022.5 |
| 20260504191012 | 54 | 0 | 0.0 | 0.0 | 0.00 | 0.28 | 0.02 | 87 | 1022.5 |
| 20260504190508 | 54 | 0 | 0.0 | 0.0 | 0.00 | 0.28 | 0.02 | 87 | 1022.4 |
| 20260504190030 | 54 | 0 | 0.0 | 0.0 | 0.00 | 0.28 | 0.02 | 87 | 1022.4 |
| 20260504185509 | 54 | 0 | 0.0 | 0.0 | 0.00 | 0.28 | 0.02 | 87 | 1022.4 |
| 20260504185009 | 55 | 0 | 0.0 | 0.0 | 0.00 | 0.28 | 0.02 | 87 | 1022.4 |
| 20260504184530 | 55 | 0 | 0.0 | 0.0 | 0.00 | 0.28 | 0.02 | 87 | 1022.4 |
| 20260504184009 | 55 | 0 | 0.0 | 0.0 | 0.00 | 0.28 | 0.02 | 87 | 1022.4 |
| 20260504183512 | 55 | 0 | 0.0 | 0.0 | 0.00 | 0.28 | 0.02 | 87 | 1022.4 |
| 20260504183031 | 55 | 0 | 0.0 | 0.0 | 0.00 | 0.28 | 0.02 | 87 | 1022.3 |
| 20260504182519 | 55 | 0 | 0.0 | 0.0 | 0.00 | 0.28 | 0.02 | 87 | 1022.3 |
| 20260504182017 | 55 | 0 | 0.0 | 0.0 | 0.00 | 0.28 | 0.02 | 87 | 1022.1 |
| 20260504181527 | 55 | 0 | 0.0 | 0.0 | 0.00 | 0.28 | 0.02 | 87 | 1022.1 |
| 20260504181009 | 55 | 0 | 0.0 | 0.0 | 0.00 | 0.28 | 0.02 | 87 | 1022.1 |
| 20260504180511 | 55 | 0 | 0.0 | 0.0 | 0.00 | 0.28 | 0.02 | 87 | 1022.1 |
| 20260504180031 | 55 | 0 | 0.0 | 0.0 | 0.00 | 0.28 | 0.02 | 87 | 1022.1 |
| 20260504175508 | 55 | 0 | 0.0 | 0.0 | 0.00 | 0.28 | 0.02 | 87 | 1022.1 |
| 20260504175009 | 55 | 0 | 0.0 | 0.0 | 0.00 | 0.28 | 0.02 | 87 | 1022.1 |
| 20260504174526 | 55 | 0 | 0.0 | 0.0 | 0.00 | 0.28 | 0.02 | 87 | 1022.1 |
| 20260504174008 | 55 | 0 | 0.0 | 0.0 | 0.00 | 0.28 | 0.02 | 87 | 1022.1 |
| 20260504173510 | 55 | 0 | 0.0 | 0.0 | 0.01 | 0.28 | 0.02 | 87 | 1022.1 |